Simultaneous Nadir Overpasses (SNOs) Predictions

Prediction of SNOs between NOAA-15 and METOP-C Satellite Orbit:

Table of predicted SNOs for the next 14.0 days since TLE Epoch: 9/11/2021
Index Date (NOAA-15) Time (NOAA-15) Lat,Lon (NOAA-15) SZA (NOAA-15 ) Date (METOP-C) Time (METOP-C) Lat,Lon (METOP-C) SZA (METOP-C ) Distance(km) Time Diff (sec)
1 09/22/2021 05:01:18 81.04, 141.87 82.79 09/22/2021 05:00:07 81.03, 141.72 82.73 3.00 71
2 09/22/2021 05:51:53 -81.04, -50.74 97.20 09/22/2021 05:50:47 -81.04, -50.56 97.21 3.16 66
3 09/22/2021 06:42:20 81.04, 116.66 82.82 09/22/2021 06:41:28 81.04, 116.57 82.78 1.48 52
4 09/22/2021 07:32:55 -81.04, -75.95 97.17 09/22/2021 07:32:09 -81.04, -76.08 97.21 2.10 46
5 09/22/2021 08:23:22 81.04, 91.44 82.85 09/22/2021 08:22:49 81.04, 91.43 82.84 0.75 33
6 09/22/2021 09:13:57 -81.04,-101.17 97.14 09/22/2021 09:13:30 -81.04,-101.22 97.15 1.36 27
7 09/22/2021 10:04:25 81.05, 65.86 82.85 09/22/2021 10:04:11 81.04, 65.91 82.84 1.88 14
8 09/22/2021 10:55:00 -81.05,-126.75 97.14 09/22/2021 10:54:52 -81.04,-126.73 97.15 1.39 8
9 09/22/2021 11:45:27 81.05, 40.65 82.88 09/22/2021 11:45:32 81.04, 40.77 82.89 2.08 5
10 09/22/2021 12:36:02 -81.05,-151.96 97.10 09/22/2021 12:36:13 -81.05,-151.88 97.09 1.37 11
11 09/22/2021 13:26:29 81.05, 15.44 82.92 09/22/2021 13:26:53 81.05, 15.62 82.95 3.20 24
12 09/22/2021 14:17:04 -81.05,-177.17 97.07 09/22/2021 14:17:34 -81.05,-177.03 97.04 2.64 30
13 09/22/2021 15:07:31 81.04, -9.77 82.95 09/22/2021 15:08:15 81.04, -9.90 82.95 2.12 44
14 09/22/2021 15:58:06 -81.04, 157.62 97.04 09/22/2021 15:58:56 -81.05, 157.46 97.04 2.75 50
15 09/22/2021 16:48:33 81.04, -34.98 82.98 09/22/2021 16:49:36 81.05, -35.04 83.01 1.49 63



Historial Predications of SNOs between NOAA-15 and METOP-C
